Location: Fort Wayne
(41.1310°N, 85.1290°W)
Time: 01:19:58
(UTC-04:00)

ISS - Visible Passes

Search period start: 27 April 2017 00:00
Search period end: 07 May 2017 00:00
Orbit: 401 x 409 km, 51.6° (Epoch: 27 April)

Date Brightness Start Highest point End Pass type
(mag) Time Alt. Az. Time Alt. Az. Time Alt. Az.
03 May -1.2 05:53:55 10° S 05:55:55 15° SE 05:57:55 10° E visible
05 May -2.7 05:44:52 10° SSW 05:47:54 36° SE 05:50:57 10° ENE visible
06 May -1.8 04:54:42 16° SSE 04:55:55 19° SE 04:58:20 10° E visible
